TimeCST,TemperatureF,Dew PointF,Humidity,Sea Level PressureIn,VisibilityMPH,Wind Direction,Wind SpeedMPH,Gust SpeedMPH,PrecipitationIn,Events,Conditions,WindDirDegrees,DateUTC
12:06 AM,41.0,39.2,93,30.00,8.0,NE,6.9,-,N/A,,Overcast,50,2012-12-09 06:06:00
12:37 AM,41.0,39.2,93,30.00,8.0,East,3.5,-,N/A,,Overcast,80,2012-12-09 06:37:00
12:53 AM,41.0,39.9,96,30.00,6.0,ENE,5.8,-,0.00,Rain,Light Rain,60,2012-12-09 06:53:00
1:25 AM,41.0,39.2,93,29.97,6.0,East,5.8,-,0.00,Rain,Light Rain,90,2012-12-09 07:25:00
1:53 AM,42.1,41.0,96,29.97,4.0,East,9.2,-,0.00,,Overcast,100,2012-12-09 07:53:00
2:13 AM,42.8,41.0,93,29.94,4.0,East,9.2,-,N/A,,Overcast,90,2012-12-09 08:13:00
2:22 AM,42.8,41.0,93,29.94,5.0,ESE,10.4,-,N/A,,Overcast,110,2012-12-09 08:22:00
2:53 AM,43.0,42.1,97,29.94,5.0,East,8.1,-,N/A,,Overcast,90,2012-12-09 08:53:00
3:53 AM,43.0,42.1,97,29.90,5.0,East,10.4,-,N/A,,Overcast,100,2012-12-09 09:53:00
4:13 AM,42.8,42.8,100,29.89,2.0,East,8.1,-,0.06,Rain,Rain,90,2012-12-09 10:13:00
4:33 AM,42.8,42.8,100,29.89,3.0,ESE,8.1,-,0.11,Rain,Rain,110,2012-12-09 10:33:00
4:40 AM,42.8,42.8,100,29.89,2.5,ESE,10.4,-,0.13,Rain,Rain,110,2012-12-09 10:40:00
4:53 AM,43.0,43.0,100,29.90,1.8,East,6.9,-,0.20,Rain,Heavy Rain,90,2012-12-09 10:53:00
5:17 AM,44.6,44.6,100,29.87,2.5,East,8.1,-,0.22,Rain,Rain,100,2012-12-09 11:17:00
5:39 AM,44.6,44.6,100,29.88,1.8,East,9.2,-,0.32,Rain,Heavy Rain,80,2012-12-09 11:39:00
5:53 AM,45.0,45.0,100,29.88,1.5,East,8.1,-,0.48,Rain,Heavy Rain,90,2012-12-09 11:53:00
5:58 AM,46.4,44.6,93,29.87,1.5,ENE,8.1,-,0.04,Rain,Heavy Rain,60,2012-12-09 11:58:00
6:08 AM,46.4,46.4,100,29.87,2.5,ESE,11.5,18.4,0.09,Rain,Heavy Rain,110,2012-12-09 12:08:00
6:18 AM,46.4,44.6,93,29.86,4.0,East,12.7,-,0.11,Rain,Light Rain,100,2012-12-09 12:18:00
6:30 AM,46.4,44.6,93,29.87,2.5,East,10.4,-,0.18,Rain,Heavy Rain,90,2012-12-09 12:30:00
6:40 AM,46.4,44.6,93,29.86,4.0,East,11.5,-,0.19,Rain,Light Rain,100,2012-12-09 12:40:00
6:53 AM,45.0,45.0,100,29.86,6.0,East,10.4,-,0.19,,Mostly Cloudy,100,2012-12-09 12:53:00
7:34 AM,44.6,44.6,100,29.84,7.0,ESE,9.2,-,N/A,,Overcast,110,2012-12-09 13:34:00
7:53 AM,45.0,44.1,97,29.85,7.0,East,6.9,-,N/A,,Overcast,100,2012-12-09 13:53:00
8:38 AM,46.4,44.6,93,29.83,6.0,SE,11.5,-,0.00,Rain,Light Rain,130,2012-12-09 14:38:00
8:53 AM,46.0,45.0,96,29.84,3.0,SE,10.4,-,0.00,Rain,Light Rain,130,2012-12-09 14:53:00
9:24 AM,46.4,46.4,100,29.84,3.0,SSE,11.5,-,0.01,Rain,Light Rain,150,2012-12-09 15:24:00
9:35 AM,46.4,46.4,100,29.84,2.5,SSE,8.1,-,0.01,,Overcast,150,2012-12-09 15:35:00
9:51 AM,46.4,46.4,100,29.84,1.2,SSE,8.1,-,0.01,,Overcast,160,2012-12-09 15:51:00
9:53 AM,46.9,46.9,100,29.85,1.0,SSE,6.9,-,0.01,,Overcast,160,2012-12-09 15:53:00
10:06 AM,46.4,46.4,100,29.84,0.8,SSE,9.2,-,N/A,,Overcast,160,2012-12-09 16:06:00
10:15 AM,46.4,46.4,100,29.84,1.2,SSE,10.4,-,N/A,,Overcast,160,2012-12-09 16:15:00
10:38 AM,46.4,46.4,100,29.83,0.8,SSE,8.1,-,N/A,,Overcast,160,2012-12-09 16:38:00
10:53 AM,48.0,48.0,100,29.83,0.5,SSE,8.1,-,N/A,Fog,Fog,160,2012-12-09 16:53:00
11:12 AM,48.2,48.2,100,29.81,0.2,South,10.4,-,N/A,Fog,Fog,180,2012-12-09 17:12:00
11:53 AM,48.9,48.9,100,29.79,0.2,South,8.1,-,N/A,Fog,Fog,190,2012-12-09 17:53:00
12:53 PM,51.1,51.1,100,29.74,0.5,South,13.8,19.6,N/A,Fog,Fog,170,2012-12-09 18:53:00
1:26 PM,51.8,51.8,100,29.77,1.0,WSW,9.2,-,0.00,,Overcast,250,2012-12-09 19:26:00
1:35 PM,51.8,51.8,100,29.77,0.5,WSW,8.1,-,0.00,Fog,Fog,240,2012-12-09 19:35:00
1:49 PM,51.8,51.8,100,29.77,1.2,SW,8.1,-,0.02,Rain,Rain,230,2012-12-09 19:49:00
1:53 PM,51.1,51.1,100,29.77,1.2,WSW,5.8,-,0.02,Rain,Rain,240,2012-12-09 19:53:00
2:03 PM,51.8,51.8,100,29.76,3.0,West,5.8,-,0.01,Rain,Light Rain,260,2012-12-09 20:03:00
2:20 PM,51.8,51.8,100,29.75,3.0,West,9.2,-,0.01,Rain,Light Rain,270,2012-12-09 20:20:00
2:53 PM,51.1,50.0,96,29.77,5.0,West,5.8,-,0.01,,Overcast,260,2012-12-09 20:53:00
3:53 PM,50.0,48.9,96,29.75,5.0,WNW,6.9,-,N/A,,Overcast,290,2012-12-09 21:53:00
4:20 PM,50.0,48.2,94,29.75,4.0,WNW,9.2,-,0.00,,Overcast,300,2012-12-09 22:20:00
4:53 PM,48.9,48.0,97,29.75,4.0,Calm,Calm,-,0.01,Rain,Light Rain,0,2012-12-09 22:53:00
5:14 PM,48.2,48.2,100,29.74,2.0,WNW,9.2,-,0.05,Rain,Rain,290,2012-12-09 23:14:00
5:23 PM,48.2,48.2,100,29.76,3.0,West,11.5,-,0.06,Rain,Light Rain,280,2012-12-09 23:23:00
5:36 PM,48.2,46.4,93,29.75,2.0,WNW,6.9,-,0.11,Rain,Rain,300,2012-12-09 23:36:00
5:42 PM,46.4,46.4,100,29.76,3.0,WNW,9.2,-,0.12,Rain,Light Rain,290,2012-12-09 23:42:00
5:53 PM,46.9,46.9,100,29.77,7.0,WNW,8.1,-,0.12,,Overcast,290,2012-12-09 23:53:00
6:08 PM,46.4,46.4,100,29.76,5.0,WNW,6.9,-,N/A,,Overcast,300,2012-12-10 00:08:00
6:30 PM,46.4,46.4,100,29.77,6.0,West,10.4,-,N/A,,Overcast,280,2012-12-10 00:30:00
6:53 PM,46.0,46.0,100,29.77,9.0,WNW,10.4,-,0.00,,Overcast,300,2012-12-10 00:53:00
7:53 PM,44.1,44.1,100,29.79,6.0,NW,15.0,-,N/A,,Overcast,320,2012-12-10 01:53:00
8:24 PM,42.8,42.8,100,29.78,4.0,NW,13.8,-,0.01,,Overcast,310,2012-12-10 02:24:00
8:53 PM,43.0,42.1,97,29.79,5.0,WNW,15.0,-,0.01,,Overcast,300,2012-12-10 02:53:00
9:34 PM,42.8,39.2,87,29.80,9.0,WNW,16.1,-,N/A,,Overcast,300,2012-12-10 03:34:00
9:42 PM,42.8,39.2,87,29.81,10.0,WNW,15.0,-,N/A,,Overcast,300,2012-12-10 03:42:00
9:53 PM,41.0,39.0,93,29.82,10.0,NW,16.1,-,N/A,,Overcast,310,2012-12-10 03:53:00
10:27 PM,41.0,37.4,87,29.80,10.0,NW,12.7,-,N/A,,Overcast,310,2012-12-10 04:27:00
10:53 PM,39.9,36.0,86,29.82,10.0,NW,15.0,-,N/A,,Overcast,310,2012-12-10 04:53:00
11:53 PM,39.9,37.0,89,29.82,10.0,WNW,8.1,-,N/A,,Mostly Cloudy,300,2012-12-10 05:53:00